STARLINK-4606, 53632

Orbit data source: Space-Track

STARLINK-4606, 53632 is a payload satellite owned by SpaceX/Seattle (US) in LEO that was launched on Sun, 28 Aug 2022 UTC via an FALCON 9 launch vehicle from the Air Force Eastern Test Range (AFETR). Payload-class satellites include a variety of spacecraft equipped with specific instruments for various scientific and technological missions. These include communications satellites like Starlink; space stations such as the ISS; scientific satellites like the Hubble; Earth observation satellites from companies like Planet Labs, Umbra, and HawkEye 360; GPS; miniature CubeSats for education and research; and military/defense satellites.

Loading next visibility...
Identifier
53632, 2022-104AW
Orbit
LEO
Country
Flag of USUS
Related business
Manufacturer
SpaceX/Seattle
Mission
Operational Commercial Communications
Bus & Motor
STARLINK, Unknown motor
Mass
300 kg wet, ~290 kg dry
Launch date (UTC)
2022-08-28 (3 years ago)
Launch vehicle
FALCON 9
Launch site
Air Force Eastern Test Range (AFETR)
Object type
Payload
Rocket body
Debris
Shape & HBR
Box + 1 Pan, 10.1 m
Radar Cross Section
13.562 m², Large (>1 m²)

Expand to show TLE details & history
Last TLE update: 18 hours ago

TLE from 18 hours ago
0 STARLINK-4606
1 53632U 22104AW  25347.56533547 -.00000777  00000-0 -30748-4 0  9996
2 53632  53.2161 250.7371 0001389  95.8321 264.2830 15.08832263183222
Epoch: 2025-12-13T13:34Z
TLE epoch observation values (Epoch: 2025-12-13T13:34:04.984Z)
Latitude
0.00001°
Longitude
-35.27444°
Altitude
540.76 km
Speed
7.593 km/s
True Right ascension
16h 42m 56s
True Declination
0° 00' 00"
Sunlit
Object was in daylight at epoch
Visualization orbit readout
Latitude
Unknown
Longitude
Unknown
Altitude
Unknown
Speed
Unknown
Apparent Right ascension
Unknown
Apparent Declination
Unknown
Sunlit
N/A
Visualization observer readout
Local Sidereal Time
06:31:13
Azimuth
Unknown
Elevation
Unknown
Doppler factor
Unknown
Orbital elements
Apogee altitude
540.973 km
Perigee altitude
539.051 km
Semi-major axis
6,918.149 km
Eccentricity
0.00014
Inclination
53.2161°
RAAN
250.7371°
Arg. of periapsis
95.8321°
True anomaly
264.26716°
Mean anomaly
264.283°
Eccentric anomaly
264.27508°
Mean motion
3.77188 °/min
Orbital period
95.44 mins
BSTAR
-0.000030748
Loading maneuver chart data...
Computing Atmospheric mass density...
Loading historical data...
Loading historical data...
Loading historical data...
Loading historical data...
Loading historical data...
Loading historical data...
Loading historical data...

Documentation

Showing up to 5 results
|